Location: Fouquenies
(49.4624°N, 2.0492°E)
Time: 21:37:24
(UTC+00:00)

Cosmos 2266 Rocket - Pass Details

Date: 03 February 2023
Orbit: 933 x 1008 km, 82.9° (Epoch: 28 March)

Event Time Altitude Azimuth Distance (km) Brightness Sun altitude
Rises 17:35:44 0° 349° (N) 3,718 7.0 -7.7°
Reaches altitude 10° 17:38:18 10° 348° (NNW) 2,756 6.3 -8.1°
Maximum altitude 17:44:35 74° 265° (W) 1,014 4.3 -9.1°
Drops below altitude 10° 17:50:43 10° 181° (S) 2,684 6.5 -10.1°
Sets 17:53:10 0° 180° (S) 3,616 7.2 -10.4°
